time_stamp(utc),avg(mph),gust(mph),direction(deg),12m_air_temp(f),sonic_u(cm/s),sonic_v(cm/s),sonic_w(cm/s),pressure,2m_air_temp(f),pyranometer(W/m^2)
"2016-07-12 00:01:24+00",6.2,7.2,,72.3,141,-219,7,1018,72.1,0
"2016-07-12 00:06:24+00",7.9,8.9,,72.3,155,-295,-12,1018.03,72,0
"2016-07-12 00:11:24+00",5.6,6.6,,72.3,111,-219,-1,1018.08,72,0
"2016-07-12 00:16:24+00",7.6,8.6,,72.2,97,-310,-5,1017.98,71.8,0
"2016-07-12 00:21:24+00",8.0,9.0,,72.1,138,-322,-8,1017.97,71.7,0
"2016-07-12 00:26:24+00",8.0,9.0,,72.1,133,-320,-7,1018.08,71.6,0
"2016-07-12 00:31:24+00",6.2,7.2,,72,159,-214,-20,1018.29,71.6,0
"2016-07-12 00:36:24+00",5.2,6.2,,71.9,91,-189,-14,1018.35,71.6,0
"2016-07-12 00:41:24+00",7.4,8.4,,72,128,-285,-9,1018.38,71.5,0
"2016-07-12 00:46:24+00",7.1,8.1,,72,159,-258,0,1018.38,71.5,0
"2016-07-12 00:51:24+00",8.5,9.5,,72,112,-344,-36,1018.52,71.4,0
"2016-07-12 00:56:24+00",7.4,8.4,,72,141,-283,-2,1018.55,71.4,0
"2016-07-12 01:01:24+00",8.3,9.3,,72,162,-319,-14,1018.52,71.4,0
"2016-07-12 01:06:24+00",6.8,7.8,,71.9,119,-263,-4,1018.53,71.4,0
"2016-07-12 01:11:24+00",8.2,9.2,,71.9,107,-330,-2,1018.53,71.2,0
"2016-07-12 01:16:24+00",7.9,8.9,,72,89,-315,0,1018.53,71.3,0
"2016-07-12 01:21:24+00",8.1,10.1,,72,168,-305,3,1018.47,71.3,0
"2016-07-12 01:26:24+00",7.9,8.9,,72,144,-307,-3,1018.53,71.4,0
"2016-07-12 01:31:24+00",8.2,10.2,,72,155,-323,-6,1018.55,71.3,0
"2016-07-12 01:36:24+00",8.6,9.6,,72,145,-346,-2,1018.51,71.3,0
"2016-07-12 01:41:24+00",9.3,10.3,,72,147,-365,-1,1018.41,71.2,0
"2016-07-12 01:46:24+00",9.4,10.4,,72.1,143,-379,-12,1018.49,71.3,0
"2016-07-12 01:51:24+00",9.5,10.5,,72,152,-377,-8,1018.5,71.3,0
"2016-07-12 01:56:24+00",8.3,9.3,,71.9,123,-321,5,1018.49,71.2,0
"2016-07-12 02:01:24+00",9.6,10.6,,72,174,-368,-5,1018.66,71.2,0
"2016-07-12 02:06:24+00",9.1,11.1,,72,197,-340,-9,1018.53,71.3,0
"2016-07-12 02:11:24+00",8.3,10.3,,72,139,-326,2,1018.55,71.3,0
"2016-07-12 02:16:24+00",8.3,9.3,,71.9,140,-323,-2,1018.56,71.2,0
"2016-07-12 02:21:24+00",8.1,10.1,,72,103,-334,-3,1018.59,71.2,0
"2016-07-12 02:26:24+00",9.4,11.4,,72,188,-360,-8,1018.48,71.2,0
"2016-07-12 02:31:24+00",8.1,9.1,,72,104,-326,-4,1018.4,71.2,0
"2016-07-12 02:36:24+00",8.3,10.3,,71.9,88,-341,-4,1018.4,71.1,0
"2016-07-12 02:41:24+00",7.7,9.7,,71.8,73,-310,-9,1018.41,71,0
"2016-07-12 02:46:24+00",10.7,11.7,,72.1,165,-426,-10,1018.39,71.2,0
"2016-07-12 02:51:24+00",9.2,10.2,,72.1,156,-363,-6,1018.46,71.3,0
"2016-07-12 02:56:24+00",9.1,10.1,,72.1,123,-369,-9,1018.39,71.2,0
"2016-07-12 03:01:24+00",7.6,8.6,,72,112,-303,-3,1018.27,71.1,0
"2016-07-12 03:06:24+00",6.9,7.9,,72,132,-257,7,1018.36,71.1,0
"2016-07-12 03:11:24+00",7.1,8.1,,72,107,-278,-1,1018.31,71,0
"2016-07-12 03:16:24+00",6.6,6.6,,72,125,-251,-3,1018.44,70.9,0
"2016-07-12 03:21:24+00",6.8,7.8,,72,119,-263,-3,1018.39,70.9,0
"2016-07-12 03:26:24+00",6.5,7.5,,72,93,-253,-2,1018.38,70.8,0
"2016-07-12 03:31:24+00",6.8,7.8,,72,115,-264,3,1018.49,70.8,0
"2016-07-12 03:36:24+00",7.1,8.1,,72.1,167,-251,-6,1018.55,70.8,0
"2016-07-12 03:41:24+00",7.5,7.5,,72,186,-258,-6,1018.4,70.7,0
"2016-07-12 03:46:24+00",6.6,7.6,,72,134,-250,-4,1018.28,70.7,0
"2016-07-12 03:51:24+00",6.4,7.4,,71.8,151,-233,-4,1018.25,70.7,0
"2016-07-12 03:56:24+00",5.9,6.9,,71.8,130,-214,2,1018.26,70.7,0
"2016-07-12 04:01:24+00",6.5,7.5,,71.7,88,-260,-3,1018.18,70.5,0
"2016-07-12 04:06:24+00",5.9,6.9,,71.7,52,-246,-8,1018.17,70.3,0
"2016-07-12 04:11:24+00",6.1,7.1,,71.8,51,-249,-6,1018.23,70.3,0
"2016-07-12 04:16:24+00",6.6,7.6,,71.8,62,-266,-7,1018.21,70.2,0
"2016-07-12 04:21:24+00",5.9,6.9,,71.8,46,-242,-6,1018.12,70.2,0
"2016-07-12 04:26:24+00",6.7,7.7,,71.8,24,-67,-6,1018.05,70.2,0
"2016-07-12 04:31:24+00",5.9,6.9,,71.8,57,-244,-37,1018.14,70.1,0
"2016-07-12 04:36:24+00",6.2,7.2,,71.7,6,-219,-53,1018.14,70.1,0
"2016-07-12 04:41:24+00",5.6,6.6,,71.8,6,-197,-58,1018.1,70.2,0
"2016-07-12 04:46:24+00",5.3,6.3,,71.7,32,-177,-27,1018.14,70.1,0
"2016-07-12 04:51:24+00",4.3,4.3,,71.7,45,-138,-23,1018.18,70,0
"2016-07-12 04:56:24+00",4.7,4.7,,71.6,46,-133,-18,1018.16,69.9,0
"2016-07-12 05:01:24+00",5.3,5.3,,71.7,35,-169,-38,1018.13,69.8,0
"2016-07-12 05:06:24+00",6.2,7.2,,71.9,49,-274,-30,1018.16,69.8,0
"2016-07-12 05:11:24+00",6.2,7.2,,71.9,33,-254,-51,1018.11,69.9,0
"2016-07-12 05:16:24+00",6.5,7.5,,71.9,34,-249,-57,1018.09,69.9,0
"2016-07-12 05:21:24+00",5.6,6.6,,71.7,39,-232,-32,1018.19,69.8,0
"2016-07-12 05:26:24+00",6.0,7.0,,71.6,26,-254,-44,1018.11,69.8,0
"2016-07-12 05:31:24+00",7.1,8.1,,71.7,44,-281,-66,1018.25,69.8,0
"2016-07-12 05:36:24+00",6.5,7.5,,71.8,16,-215,-54,1018.26,69.9,0
"2016-07-12 05:41:24+00",6.4,7.4,,71.7,40,-207,-43,1018.27,69.9,0
"2016-07-12 05:46:24+00",7.1,8.1,,71.7,71,-298,-52,1018.19,70,0
"2016-07-12 05:51:24+00",6.8,7.8,,71.8,40,-286,-48,1018.22,70.1,0
"2016-07-12 05:56:24+00",7.0,8.0,,71.7,38,-292,-54,1018.07,70.2,0
"2016-07-12 06:01:24+00",6.6,7.6,,71.8,20,-271,-54,1018.13,70.4,0
"2016-07-12 06:06:24+00",6.7,7.7,,71.9,37,-272,-54,1018.12,70.5,0
"2016-07-12 06:11:24+00",7.4,8.4,,72,40,-299,-66,1018.13,70.6,0
"2016-07-12 06:16:24+00",6.6,7.6,,72.2,61,-266,-55,1018.09,70.8,0
"2016-07-12 06:21:24+00",6.0,7.0,,72.1,43,-238,-53,1018.17,70.6,0
"2016-07-12 06:26:24+00",5.3,6.3,,72.1,46,-216,-45,1018.09,70.7,0
"2016-07-12 06:31:24+00",4.3,5.3,,72,-19,-157,-35,1018.1,70.6,0
"2016-07-12 06:36:24+00",3.8,3.8,,71.5,-36,-147,-23,1018.01,70.5,0
"2016-07-12 06:41:24+00",4.5,5.5,,71.4,-53,-167,-49,1018.02,70.2,0
"2016-07-12 06:46:24+00",5.1,6.1,,71.6,-57,-189,-45,1018.07,69.9,0
"2016-07-12 06:51:24+00",4.4,4.4,,71.6,-73,-193,-48,1018.05,69.7,0
"2016-07-12 06:56:24+00",4.1,5.1,,71.6,-91,-186,-50,1018.18,69.5,0
"2016-07-12 07:01:24+00",5.2,5.2,,71.5,-74,-205,-53,1018.19,69.4,0
"2016-07-12 07:06:24+00",5.8,5.8,,71.5,-109,-247,-61,1018.21,69.3,0
"2016-07-12 07:11:24+00",5.6,6.6,,71.7,-104,-232,-58,1018.25,69.3,0
"2016-07-12 07:16:24+00",4.7,5.7,,71.5,-81,-187,-51,1018.18,69.2,0
"2016-07-12 07:21:24+00",3.9,3.9,,71.3,-57,-161,-42,1018.13,69.2,0
"2016-07-12 07:26:24+00",3.2,4.2,,71.2,-75,-143,-26,1018.25,69.3,0
"2016-07-12 07:31:24+00",3.8,3.8,,71.2,-77,-159,-45,1018.25,69.3,0
"2016-07-12 07:36:24+00",4.0,4.0,,71.3,-109,-167,-51,1018.24,69.2,0
"2016-07-12 07:41:24+00",3.9,3.9,,71.4,-94,-169,-53,1018.19,69.2,0
"2016-07-12 07:46:24+00",4.2,5.2,,71.5,-120,-177,-40,1018.23,69.2,0
"2016-07-12 07:51:24+00",3.6,4.6,,71.4,-105,-114,-39,1018.27,69.1,0
"2016-07-12 07:56:24+00",2.9,2.9,,71.3,-71,-120,-36,1018.27,69.1,0
"2016-07-12 08:01:24+00",3.1,4.1,,71.4,-50,-123,-37,1018.3,69.1,0
"2016-07-12 08:06:24+00",3.3,4.3,,71.5,-55,-129,-38,1018.31,69.3,0
"2016-07-12 08:11:24+00",2.5,2.5,,71.5,-62,-98,-21,1018.32,69.5,0
"2016-07-12 08:16:24+00",2.6,2.6,,71.4,-50,-108,-25,1018.29,69.6,0
"2016-07-12 08:21:24+00",2.6,2.6,,71.4,-29,-103,-17,1018.31,69.6,0
"2016-07-12 08:26:24+00",2.5,2.5,,71.4,-2,-90,-15,1018.42,69.7,0
"2016-07-12 08:31:24+00",2.2,3.2,,71.2,-13,-90,-9,1018.51,69.7,0
"2016-07-12 08:36:24+00",1.7,1.7,,71.1,0,-61,0,1018.54,69.7,0
"2016-07-12 08:41:24+00",2.7,3.7,,71,-14,-115,-18,1018.68,69.7,0
"2016-07-12 08:46:24+00",2.5,2.5,,71,-24,-106,-18,1018.62,69.7,0
"2016-07-12 08:51:24+00",3.5,3.5,,71.2,-56,-140,-24,1018.65,69.7,0
"2016-07-12 08:56:24+00",3.6,4.6,,71.3,-64,-144,-14,1018.58,69.7,0
"2016-07-12 09:01:24+00",4.2,5.2,,71.5,-20,-85,31,1018.53,69.8,0
"2016-07-12 09:06:24+00",4.4,4.4,,71.5,-22,-92,28,1018.61,69.8,0
"2016-07-12 09:11:24+00",3.8,3.8,,71.6,-17,-65,17,1018.78,69.9,0
"2016-07-12 09:16:24+00",2.6,2.6,,71.6,-10,-75,25,1018.98,70,0
"2016-07-12 09:21:24+00",3.0,3.0,,71.7,-11,-120,14,1018.91,70.1,0
"2016-07-12 09:26:24+00",2.4,2.4,,71.7,4,-92,-1,1018.9,70.2,0
"2016-07-12 09:31:24+00",2.5,2.5,,71.6,4,-99,-2,1019.03,70.3,0
"2016-07-12 09:36:24+00",2.3,2.3,,71.6,50,-73,-4,1019.1,70.1,0
"2016-07-12 09:41:24+00",2.9,2.9,,71.5,58,-99,-4,1019.22,70,0
"2016-07-12 09:46:24+00",2.6,2.6,,71.6,71,-72,-4,1019.1,69.9,0
"2016-07-12 09:51:24+00",2.6,2.6,,71.5,82,-55,-3,1019.12,69.8,0
"2016-07-12 09:56:24+00",2.3,2.3,,71.5,87,-32,-2,1019.17,69.8,0
"2016-07-12 10:01:24+00",1.9,2.9,,71.6,63,-31,-3,1019.13,69.8,0
"2016-07-12 10:06:24+00",2.3,2.3,,71.7,70,-52,1,1019.19,69.8,0
"2016-07-12 10:11:24+00",2.3,2.3,,71.8,59,-67,-1,1019.22,70,0.2
"2016-07-12 10:16:24+00",2.9,2.9,,72.1,46,-102,-3,1019.22,70.4,3.3
"2016-07-12 10:21:24+00",1.6,2.6,,72.3,28,-56,-4,1019.3,70.8,7.4
"2016-07-12 10:26:24+00",1.6,1.6,,72.5,13,-56,3,1019.27,71.3,9.3
"2016-07-12 10:31:24+00",1.6,1.6,,72.8,30,-47,2,1019.25,71.8,17
"2016-07-12 10:36:24+00",1.9,2.9,,73.1,41,-56,-2,1019.14,72.5,26.3
"2016-07-12 10:41:24+00",2.3,3.3,,73.3,26,-83,-4,1019.18,72.9,36.2
"2016-07-12 10:46:24+00",1.9,2.9,,73.3,36,-64,-10,1019.19,73.2,36.9
"2016-07-12 10:51:24+00",2.0,2.0,,73.4,54,-53,12,1019.16,73.7,39.5
"2016-07-12 10:56:24+00",2.8,3.8,,73.2,91,-69,11,1019.24,74,31.2
"2016-07-12 11:01:24+00",2.6,2.6,,73.1,80,-62,14,1019.29,74.3,63.8
"2016-07-12 11:06:24+00",3.8,3.8,,73.2,72,-141,-6,1019.32,74.3,68.5
"2016-07-12 11:11:24+00",3.9,3.9,,73.3,75,-144,12,1019.49,74.3,61.8
"2016-07-12 11:16:24+00",4.3,5.3,,73.2,81,-155,3,1019.49,74.2,83.8
"2016-07-12 11:21:24+00",5.4,6.4,,73.3,111,-198,-10,1019.61,74.4,99.5
"2016-07-12 11:26:24+00",4.1,5.1,,73.3,104,-131,3,1019.68,74.4,110.9
"2016-07-12 11:31:24+00",4.6,5.6,,73.5,32,-177,-5,1019.72,74.5,120.4
"2016-07-12 11:36:24+00",4.6,6.6,,73.5,107,-157,-7,1019.78,74.7,127
"2016-07-12 11:41:24+00",4.3,5.3,,73.5,26,-173,-17,1019.76,74.7,132
"2016-07-12 11:46:24+00",5.4,6.4,,73.5,124,-190,3,1019.83,74.8,141.3
"2016-07-12 11:51:24+00",6.3,8.3,,73.5,160,-216,12,1019.88,74.9,132.9
"2016-07-12 11:56:24+00",6.9,7.9,,73.4,131,-258,-7,1019.85,74.7,127
"2016-07-12 12:01:24+00",6.8,7.8,,73.6,123,-262,4,1019.88,74.8,152.7
"2016-07-12 12:06:24+00",6.5,8.5,,73.6,50,-270,-7,1019.8,74.8,146.9
"2016-07-12 12:11:24+00",7.5,8.5,,73.6,155,-293,2,1019.75,74.8,171.8
"2016-07-12 12:16:24+00",7.3,9.3,,73.4,70,-301,1,1019.81,74.6,178.1
"2016-07-12 12:21:24+00",7.0,8.0,,73.4,126,-275,2,1019.85,74.8,190.8
"2016-07-12 12:26:24+00",6.0,7.0,,73.7,104,-234,18,1019.84,74.8,197.5
"2016-07-12 12:31:24+00",7.9,8.9,,73.5,102,-315,-28,1019.96,74.7,200.8
"2016-07-12 12:36:24+00",7.5,9.5,,73.9,75,-297,15,1019.95,75,196.1
"2016-07-12 12:41:24+00",7.1,10.1,,73.6,56,-297,11,1020,74.7,220.1
"2016-07-12 12:46:24+00",7.9,8.9,,73.5,98,-324,-20,1019.88,74.7,231.8
"2016-07-12 12:51:24+00",5.9,6.9,,73.6,37,-247,3,1019.92,74.8,243.7
"2016-07-12 12:56:24+00",9.5,11.5,,73.7,204,-349,-14,1019.92,75,256.7
"2016-07-12 13:01:24+00",8.8,9.8,,74,203,-300,19,1019.96,75.4,259.6
"2016-07-12 13:06:24+00",8.7,12.7,,73.9,50,-362,-13,1019.89,75.4,279.5
"2016-07-12 13:11:24+00",8.3,10.3,,73.5,195,-302,-22,1019.95,75.2,284
"2016-07-12 13:16:24+00",9.6,12.6,,73.8,78,-406,-11,1019.86,75.5,278.6
"2016-07-12 13:21:24+00",9.4,11.4,,73.6,225,-329,-14,1019.88,75.6,298.6
"2016-07-12 13:26:24+00",7.8,12.8,,73.7,53,-277,26,1019.91,75.5,306.5
"2016-07-12 13:31:24+00",9.1,11.1,,73.7,153,-356,-2,1019.93,75.6,313.4
"2016-07-12 13:36:24+00",9.3,11.3,,74.1,169,-351,28,1019.85,76,323.5
"2016-07-12 13:41:24+00",9.6,11.6,,73.9,182,-367,0,1019.88,76.3,330.5
"2016-07-12 13:46:24+00",8.5,10.5,,74,6,-359,-17,1019.82,76.1,340.8
"2016-07-12 13:51:24+00",8.3,10.3,,74,-5,-337,-2,1019.93,75.9,349.8
"2016-07-12 13:56:24+00",9.9,11.9,,74.1,218,-373,41,1020,76,365.1
"2016-07-12 14:01:24+00",9.5,13.5,,74,117,-377,2,1019.99,76,372.1
"2016-07-12 14:06:24+00",7.8,9.8,,73.6,185,-276,-25,1020.01,75.7,373.9
"2016-07-12 14:11:24+00",8.5,11.5,,73.9,145,-325,18,1020.08,76.1,366
"2016-07-12 14:16:24+00",7.8,10.8,,74.3,71,-311,1,1020.03,76.4,363.4
"2016-07-12 14:21:24+00",9.3,11.3,,74,126,-375,1,1019.91,76.1,406.3
"2016-07-12 14:26:24+00",7.2,8.2,,73.8,72,-286,-24,1019.93,75.8,414.7
"2016-07-12 14:31:24+00",7.9,8.9,,73.9,100,-322,8,1019.95,76.5,420.7
"2016-07-12 14:36:24+00",8.1,10.1,,73.8,115,-321,-12,1019.9,76.2,424.1
"2016-07-12 14:41:24+00",8.9,11.9,,74,232,-310,-18,1019.9,76.5,435.9
"2016-07-12 14:46:24+00",8.4,9.4,,73.6,191,-304,-21,1019.91,76.3,437.3
"2016-07-12 14:51:24+00",10.1,12.1,,73.6,232,-361,-18,1019.87,76.3,445.8
"2016-07-12 14:56:24+00",10.0,11.0,,73.8,243,-351,-12,1019.88,76.1,457.3
"2016-07-12 15:01:24+00",8.4,12.4,,73.8,78,-343,-13,1019.93,76.4,465.4
"2016-07-12 15:06:24+00",5.6,8.6,,74.2,-29,-228,55,1019.87,76.6,468.4
"2016-07-12 15:11:24+00",8.9,10.9,,74,112,-365,-12,1019.89,76.2,479.2
"2016-07-12 15:16:24+00",10.8,12.8,,74.1,104,-448,-28,1019.89,76.3,487.2
"2016-07-12 15:21:24+00",12.1,13.1,,73.5,201,-472,-30,1019.87,75.8,493.2
"2016-07-12 15:26:24+00",9.4,11.4,,74.1,171,-345,17,1019.86,76.4,500.2
"2016-07-12 15:31:24+00",8.3,10.3,,73.9,99,-337,-16,1019.88,76.3,508.2
"2016-07-12 15:36:24+00",10.4,13.4,,73.9,197,-397,-28,1019.98,76.2,512.8
"2016-07-12 15:41:24+00",7.8,9.8,,74.1,32,-331,-3,1019.97,76.1,515.7
"2016-07-12 15:46:24+00",8.0,9.0,,74,149,-290,27,1020.03,76.1,524.3
"2016-07-12 15:51:24+00",5.8,8.8,,74.4,-12,-212,37,1020.01,76.4,527.2
"2016-07-12 15:56:24+00",8.6,10.6,,74.1,99,-350,-8,1019.95,76.5,532.6
"2016-07-12 16:01:24+00",8.1,10.1,,74,79,-327,5,1019.91,76.1,535.2
"2016-07-12 16:06:24+00",7.8,9.8,,74.2,-30,-318,-2,1019.94,76.3,541.9
"2016-07-12 16:11:24+00",9.4,11.4,,74.1,37,-401,-15,1019.96,76.3,546.3
"2016-07-12 16:16:24+00",12.2,14.2,,74.1,203,-488,-14,1019.98,76.5,554.9
"2016-07-12 16:21:24+00",9.6,11.6,,74.3,63,-394,-9,1019.97,76.2,556.1
"2016-07-12 16:26:24+00",7.4,12.4,,74.2,44,-311,13,1019.92,76.1,559.7
"2016-07-12 16:31:24+00",10.8,12.8,,74.3,53,-446,-30,1019.87,76.1,563.8
"2016-07-12 16:36:24+00",10.4,13.4,,74,100,-423,-20,1019.91,76,565.6
"2016-07-12 16:41:24+00",11.6,12.6,,74,125,-469,-17,1019.9,76.3,569.5
"2016-07-12 16:46:24+00",11.6,13.6,,74.2,111,-482,-20,1019.84,76.4,570.5
"2016-07-12 16:51:24+00",12.4,14.4,,74.1,11,-519,-40,1019.78,76.3,576.2
"2016-07-12 16:56:24+00",11.4,14.4,,74.5,6,-492,-17,1019.73,76.5,551
"2016-07-12 17:01:24+00",9.6,12.6,,74.6,65,-395,-2,1019.69,76.7,577.3
"2016-07-12 17:06:24+00",12.3,16.3,,74.3,72,-516,1,1019.65,76.6,576.5
"2016-07-12 17:11:24+00",9.4,14.4,,74.4,4,-403,25,1019.67,76.5,575.9
"2016-07-12 17:16:24+00",10.3,15.3,,74.6,-2,-424,1,1019.67,76.5,572.4
"2016-07-12 17:21:24+00",12.8,14.8,,74.4,89,-534,-14,1019.53,76.5,571.4
"2016-07-12 17:26:24+00",14.2,15.2,,74.5,81,-599,-31,1019.59,76.7,569.9
"2016-07-12 17:31:24+00",12.7,15.7,,74.2,68,-534,-23,1019.34,76.4,571
"2016-07-12 17:36:24+00",13.4,15.4,,74.3,67,-572,-33,1019.29,76.3,568
"2016-07-12 17:41:24+00",13.1,15.1,,74.1,99,-544,-4,1019.35,75.8,566.5
"2016-07-12 17:46:24+00",11.8,13.8,,74.6,41,-501,-10,1019.14,76.5,564
"2016-07-12 17:51:24+00",10.8,14.8,,75.1,23,-442,23,1019.05,77.1,560.6
"2016-07-12 17:56:24+00",12.1,14.1,,74.7,32,-515,-5,1018.97,76.6,555.6
"2016-07-12 18:01:24+00",12.9,14.9,,74.7,35,-537,-11,1018.99,76.5,556.9
"2016-07-12 18:06:24+00",13.5,15.5,,74.3,43,-584,-21,1018.96,76.4,551.5
"2016-07-12 18:11:24+00",13.1,17.1,,74.7,119,-537,22,1018.97,76.7,546.1
"2016-07-12 18:16:24+00",11.2,17.2,,74.4,5,-462,11,1018.95,76.3,541.2
"2016-07-12 18:21:24+00",12.3,17.3,,74.4,-9,-508,-4,1018.93,76.1,532
"2016-07-12 18:26:24+00",13.2,17.2,,74.7,67,-562,-26,1019.03,76.3,531.6
"2016-07-12 18:31:24+00",14.9,17.9,,74.7,68,-631,-27,1019.09,76.5,528.5
"2016-07-12 18:36:24+00",11.3,16.3,,74.9,-129,-463,1,1019.08,76.5,522
"2016-07-12 18:41:24+00",12.2,16.2,,75.4,-14,-513,-4,1018.97,77.1,513.8
"2016-07-12 18:46:24+00",13.2,16.2,,75.4,-11,-560,-5,1018.91,76.9,511.4
"2016-07-12 18:51:24+00",12.5,18.5,,75.2,21,-516,-2,1018.82,76.8,492.7
"2016-07-12 18:56:24+00",11.1,18.1,,75.6,-114,-463,26,1018.86,77.2,478.5
"2016-07-12 19:01:24+00",13.8,17.8,,75.6,28,-567,9,1018.84,77.5,475.9
"2016-07-12 19:06:24+00",11.1,15.1,,75.5,-13,-459,10,1018.72,77.1,451.1
"2016-07-12 19:11:24+00",14.0,18.0,,75.4,6,-586,-20,1018.57,77,443.5
"2016-07-12 19:16:24+00",14.6,15.6,,75.1,18,-608,-17,1018.56,76.6,437.7
"2016-07-12 19:21:24+00",9.9,12.9,,75.4,-44,-407,0,1018.53,76.7,417.5
"2016-07-12 19:26:24+00",11.7,17.7,,75.3,-88,-476,37,1018.49,76.8,409.5
"2016-07-12 19:31:24+00",14.5,17.5,,75.3,-4,-600,-33,1018.37,76.7,411.5
"2016-07-12 19:36:24+00",14.3,18.3,,75.5,-75,-594,-43,1018.37,76.9,384.3
"2016-07-12 19:41:24+00",13.0,16.0,,75.3,-22,-557,-21,1018.28,76.8,370.9
"2016-07-12 19:46:24+00",14.1,18.1,,75.1,-22,-588,3,1018.17,76.7,373.4
"2016-07-12 19:51:24+00",12.8,17.8,,75.3,-132,-535,-13,1018.13,76.8,382.3
"2016-07-12 19:56:24+00",14.6,18.6,,74.8,-9,-618,-37,1018.08,76.3,375.3
"2016-07-12 20:01:24+00",16.6,20.6,,75,1,-697,-32,1018.05,76.5,377.3
"2016-07-12 20:06:24+00",17.6,19.6,,74.6,29,-744,-46,1017.98,76.1,365.5
"2016-07-12 20:11:24+00",12.3,15.3,,75.1,-21,-509,-8,1018.02,76.5,357.5
"2016-07-12 20:16:24+00",11.9,15.9,,75.4,-68,-505,4,1017.95,76.8,362
"2016-07-12 20:21:24+00",12.3,18.3,,75.5,-50,-514,-5,1017.97,76.9,351.9
"2016-07-12 20:26:24+00",12.9,16.9,,75.4,-153,-536,27,1017.96,76.9,336.7
"2016-07-12 20:31:24+00",14.6,17.6,,75.2,23,-605,-15,1017.99,76.5,329.9
"2016-07-12 20:36:24+00",14.2,17.2,,75.2,-37,-590,-24,1017.96,76.4,334.9
"2016-07-12 20:41:24+00",15.0,20.0,,75.3,13,-632,-24,1018.01,76.7,210.9
"2016-07-12 20:46:24+00",11.5,15.5,,75.8,-47,-482,-7,1018.02,77,17.5
"2016-07-12 20:51:24+00",15.6,18.6,,75.4,0,-655,-29,1018.05,76.7,18.6
"2016-07-12 20:56:24+00",10.3,15.3,,75.7,-66,-419,-3,1018.04,76.9,16.2
"2016-07-12 21:01:24+00",12.8,21.8,,75.4,-32,-543,-20,1018.01,76.7,13.3
"2016-07-12 21:06:24+00",12.9,16.9,,75.6,-26,-535,12,1017.96,76.7,270.8
"2016-07-12 21:11:24+00",11.7,16.7,,75.8,-58,-499,-2,1018.06,76.9,281.4
"2016-07-12 21:16:24+00",11.1,14.1,,76,-66,-450,6,1018.01,77,273.8
"2016-07-12 21:21:24+00",11.3,15.3,,75.7,-55,-464,6,1018,77,16.4
"2016-07-12 21:26:24+00",12.4,15.4,,76,-29,-525,-19,1018.01,77.1,162.8
"2016-07-12 21:31:24+00",14.0,18.0,,75.4,-66,-586,-37,1018.04,76.6,246.4
"2016-07-12 21:36:24+00",12.3,16.3,,75.4,-114,-510,-13,1017.98,76.4,232.6
"2016-07-12 21:41:24+00",12.0,15.0,,75.5,-160,-493,9,1018.07,76.6,224.8
"2016-07-12 21:46:24+00",12.5,16.5,,75.3,-126,-525,-6,1017.98,76.5,214.7
"2016-07-12 21:51:24+00",13.6,16.6,,75.4,-112,-577,-23,1018.02,76.6,205
"2016-07-12 21:56:24+00",12.1,17.1,,75.1,-44,-508,-21,1018.09,76.2,196.1
"2016-07-12 22:01:24+00",12.3,17.3,,75.3,-143,-515,-1,1018.08,76.4,186
"2016-07-12 22:06:24+00",9.7,12.7,,75.3,-25,-400,20,1018.01,76.2,171
"2016-07-12 22:11:24+00",11.9,15.9,,74.9,-11,-484,-8,1017.97,75.8,149.1
"2016-07-12 22:16:24+00",10.1,14.1,,74.8,-36,-443,-2,1017.97,75.6,151.6
"2016-07-12 22:21:24+00",11.9,15.9,,74.7,-70,-500,-22,1017.99,75.4,127
"2016-07-12 22:26:24+00",14.6,16.6,,74.3,27,-619,-25,1017.87,75,128.5
"2016-07-12 22:31:24+00",12.8,15.8,,74.3,-6,-546,-13,1017.91,74.9,116.6
"2016-07-12 22:36:24+00",12.2,17.2,,74.3,-8,-513,-21,1017.91,74.9,112.9
"2016-07-12 22:41:24+00",12.1,15.1,,74.3,-61,-504,-9,1017.97,74.9,83.8
"2016-07-12 22:46:24+00",13.6,18.6,,74.2,-34,-557,-17,1017.95,74.7,91
"2016-07-12 22:51:24+00",13.6,17.6,,74.1,22,-568,-13,1017.89,74.5,81.5
"2016-07-12 22:56:24+00",9.7,12.7,,74.2,-30,-412,-5,1018.06,74.5,64.5
"2016-07-12 23:01:24+00",12.1,14.1,,74.2,-3,-513,-25,1018.04,74.5,57.4
"2016-07-12 23:06:24+00",12.4,15.4,,74,-21,-522,-21,1018.11,74.3,51.4
"2016-07-12 23:11:24+00",11.0,14.0,,74.1,-97,-453,6,1018.16,74.4,46.1
"2016-07-12 23:16:24+00",13.4,15.4,,74,-6,-560,-34,1018.14,74.2,38.6
"2016-07-12 23:21:24+00",12.4,15.4,,73.9,-89,-513,-7,1018.09,74.1,30.1
"2016-07-12 23:26:24+00",11.1,14.1,,73.9,-29,-477,-22,1017.89,74.1,25.8
"2016-07-12 23:31:24+00",9.6,13.6,,74,-97,-395,15,1017.82,74.1,20
"2016-07-12 23:36:24+00",12.2,15.2,,73.8,-37,-516,-11,1017.88,74,15.9
"2016-07-12 23:41:24+00",10.9,16.9,,73.8,-9,-451,-8,1017.81,73.9,10.8
"2016-07-12 23:46:24+00",14.1,17.1,,73.7,-50,-598,-43,1017.72,73.8,8
"2016-07-12 23:51:24+00",11.6,15.6,,73.6,-58,-475,-15,1017.62,73.7,1
"2016-07-12 23:56:24+00",11.6,14.6,,73.6,-93,-480,-9,1017.57,73.6,0
